User: anonymous   Login
Location: Caltech
(34.1382°N, 118.1253°W)
Time: 03:38:42
(UTC-07:00)
Language:

ALOS - Orbit

View from above orbital plane
View from above orbital plane
View from above satellite
View from above satellite

Ground track
Ground track

The orbit data is extracted from the following two-line orbital elements,

1 28931U 06002A   15090.86396607  .00001225  00000-0  25452-3 0  9992
2 28931 097.9432 143.3283 0001569 057.4375 302.6974 14.61757325489345
Epoch (UTC): 31 March 2015 20:44:06
Eccentricity: 0.0001569
inclination: 97.9432°
perigee height: 686 km
apogee height: 688 km
right ascension of ascending node: 143.3283°
argument of perigee: 57.4375°
revolutions per day: 14.61757325
mean anomaly at epoch: 302.6974°
orbit number at epoch: 48934

The dashed part of the orbit path shows where the satellite is in the earth's shadow,  

DLR